SCP
-0 -0 0 0 0 0 0 0 0 0 0 0 0 0 0 0 0 0 0 -0 -0 0
-0 -0 -0 -0 -0 -0 -0 -0 -0 -0 -0 -0 0 0 0 0 0 0 0 -0 0 0
-0 -0 -0 -0 -0 -0 -0 -0 0 0 0 0 0 0 0 0 0 0 0 0 0 0
-0 -0 -0 -0 -0 -0 -0 0 0 0 0 0 0 0 0 0 0 0 0 0 0 0
-0 0 0 0 0 0 -0 0 0 0 0 0 0 0 0 0 0 0 0 0 0 0
0 0 0 0 0 0 0 0 0 0 0 0 0 0 0 0 0 0 0 0 0 0
0 0 0 0 0 0 0 0 0 0 0 0 0 0 0 0 0 0 0 0 0 0
0 0 0 0 0 0 0 0 0 0 0 0 0 0 0 0 0 0 0 0 0 0
0 0 0 0 0 0 0 0 0 0 0 0 0 0 0 0 0 0 0 0 0 0
0 0 0 0 0 0 0 0 0 0 0 0 0 0 0 0 0 0 0 0 0 0
0 0 0 0 0 0 0 0 0 0 0 0 0 0 0 0 0 0 0 0 0 0
0 0 0 0 0 0 0 0 0 0 0 0 0 0 0 0 0 0 0 0 0 0
0 0 0 0 0 0 0 0 0 0 0 0 0 0 0 0 0 0 0 0 0 0
0 0 0 0 0 0 0 0 0 0 0 0 0 0 0 0 0 0 0 0 0 0
Wind_Speed_500mb
46 55 65 68 62 63 69 77 78 71 73 79 73 64 55 71 76 66 62 62 62 62
44 47 68 72 61 58 56 67 76 81 85 85 86 79 88 75 79 83 82 74 65 67
48 46 47 54 56 53 53 57 60 73 78 77 73 71 74 85 78 76 75 71 72 66
50 46 49 55 53 59 54 56 53 55 65 65 64 61 63 67 73 68 66 66 70 75
50 49 51 55 61 58 59 58 56 61 56 58 62 61 68 72 73 71 76 81 79 81
48 49 52 52 57 56 58 57 57 57 60 61 65 67 68 71 77 79 77 78 78 89
49 49 48 48 50 56 55 54 56 58 56 58 54 54 57 59 65 67 71 79 76 77
48 47 46 46 47 47 50 50 46 46 47 47 47 50 55 58 65 70 74 63 70 78
46 45 45 45 44 43 42 42 40 40 40 40 52 61 62 63 68 75 74 65 65 64
45 43 42 39 38 38 37 34 47 52 52 51 53 59 64 65 62 57 55 56 53 51
40 38 35 38 47 49 47 50 51 51 54 58 56 54 54 50 45 37 31 26 21 23
38 50 53 51 49 46 44 44 43 39 35 33 29 27 25 18 12 12 12 9 13 16
57 53 48 43 40 39 35 34 28 25 18 15 11 6 3 5 7 7 10 12 14 15
45 45 42 40 37 34 33 33 32 29 27 23 20 18 15 14 12 13 14 17 19 23
Wind_Direction_500mb
192 200 193 187 192 196 201 204 207 203 207 213 223 231 235 247 246 246 248 254 260 264
188 189 202 205 203 200 206 211 210 213 218 222 231 238 238 243 247 250 250 260 258 260
189 196 194 199 207 209 209 206 210 217 221 227 230 233 242 248 249 248 250 253 258 258
197 199 197 197 204 207 205 205 208 218 218 221 228 235 241 250 252 249 254 259 261 264
199 201 204 205 208 210 213 212 215 217 221 228 236 242 244 249 248 249 253 259 260 261
202 206 208 210 210 215 217 220 224 228 232 236 239 242 246 249 251 254 256 259 262 263
205 208 212 213 214 214 216 219 224 228 233 236 239 243 245 248 252 258 259 262 273 278
205 209 211 215 217 218 219 221 226 231 235 238 242 249 249 250 255 258 262 265 258 270
201 205 209 213 216 220 222 227 231 235 240 246 241 246 250 249 255 262 265 269 271 276
201 204 208 211 214 217 222 221 222 224 228 233 241 251 256 259 262 266 269 271 272 276
196 197 197 200 205 209 213 217 224 231 237 241 247 251 256 263 268 270 271 276 290 295
181 187 192 195 200 205 211 215 220 216 216 227 237 248 249 260 276 281 302 334 343 340
180 185 185 191 196 197 198 199 192 192 172 151 130 102 49 30 5 13 27 18 6 2
176 175 176 174 165 163 160 151 137 127 114 103 89 75 68 63 39 31 17 6 353 345
Wind_Speed_850mb
46 55 65 68 62 63 69 77 78 71 73 79 73 64 55 71 76 66 62 62 62 62
44 47 68 72 61 58 56 67 76 81 85 85 86 79 88 75 79 83 82 74 65 67
48 46 47 54 56 53 53 57 60 73 78 77 73 71 74 85 78 76 75 71 72 66
50 46 49 55 53 59 54 56 53 55 65 65 64 61 63 67 73 68 66 66 70 75
50 49 51 55 61 58 59 58 56 61 56 58 62 61 68 72 73 71 76 81 79 81
48 49 52 52 57 56 58 57 57 57 60 61 65 67 68 71 77 79 77 78 78 89
49 49 48 48 50 56 55 54 56 58 56 58 54 54 57 59 65 67 71 79 76 77
48 47 46 46 47 47 50 50 46 46 47 47 47 50 55 58 65 70 74 63 70 78
46 45 45 45 44 43 42 42 40 40 40 40 52 61 62 63 68 75 74 65 65 64
45 43 42 39 38 38 37 34 47 52 52 51 53 59 64 65 62 57 55 56 53 51
40 38 35 38 47 49 47 50 51 51 54 58 56 54 54 50 45 37 31 26 21 23
38 50 53 51 49 46 44 44 43 39 35 33 29 27 25 18 12 12 12 9 13 16
57 53 48 43 40 39 35 34 28 25 18 15 11 6 3 5 7 7 10 12 14 15
45 45 42 40 37 34 33 33 32 29 27 23 20 18 15 14 12 13 14 17 19 23
Wind_Direction_850mb
192 200 193 187 192 196 201 204 207 203 207 213 223 231 235 247 246 246 248 254 260 264
188 189 202 205 203 200 206 211 210 213 218 222 231 238 238 243 247 250 250 260 258 260
189 196 194 199 207 209 209 206 210 217 221 227 230 233 242 248 249 248 250 253 258 258
197 199 197 197 204 207 205 205 208 218 218 221 228 235 241 250 252 249 254 259 261 264
199 201 204 205 208 210 213 212 215 217 221 228 236 242 244 249 248 249 253 259 260 261
202 206 208 210 210 215 217 220 224 228 232 236 239 242 246 249 251 254 256 259 262 263
205 208 212 213 214 214 216 219 224 228 233 236 239 243 245 248 252 258 259 262 273 278
205 209 211 215 217 218 219 221 226 231 235 238 242 249 249 250 255 258 262 265 258 270
201 205 209 213 216 220 222 227 231 235 240 246 241 246 250 249 255 262 265 269 271 276
201 204 208 211 214 217 222 221 222 224 228 233 241 251 256 259 262 266 269 271 272 276
196 197 197 200 205 209 213 217 224 231 237 241 247 251 256 263 268 270 271 276 290 295
181 187 192 195 200 205 211 215 220 216 216 227 237 248 249 260 276 281 302 334 343 340
180 185 185 191 196 197 198 199 192 192 172 151 130 102 49 30 5 13 27 18 6 2
176 175 176 174 165 163 160 151 137 127 114 103 89 75 68 63 39 31 17 6 353 345